CFE7JL EDDB-EGLC

Flight info

Callsign CFE7JL
Flight time 1h 35m
Altitude 38000
Route SUKIP4Z SUKIP Y206 BUREL P203 HLZ L980 ROBEG DCT AMSAN DCT RKN DCT ODVIL DCT GALSO Q63 SUMUM
Aircraft E190/M-SDE3GILORVW/S

Departure

Time 2026-05-04 21:49
Airport Berlin Brandenburg Airport (EDDB)

Arrival

Time 2026-05-04 23:24
Airport London City Airport (EGLC)
Time Latitude Longitude Altitude Speed Heading
2026-05-04 20:57 52.35899 13.50158 148 ft 0 kts 69°
2026-05-04 21:36 52.35897 13.50151 148 ft 3 kts 70°
2026-05-04 21:36 52.35891 13.50109 148 ft 4 kts 92°
2026-05-04 21:37 52.35896 13.50068 148 ft 4 kts 123°
2026-05-04 21:37 52.35912 13.50042 148 ft 1 kts 158°
2026-05-04 21:37 52.35912 13.50041 148 ft 0 kts 158°
2026-05-04 21:39 52.35909 13.50043 148 ft 1 kts 161°
2026-05-04 21:40 52.35894 13.50045 148 ft 3 kts 177°
2026-05-04 21:40 52.35865 13.50043 148 ft 5 kts 183°
2026-05-04 21:40 52.35828 13.50052 148 ft 6 kts 166°
2026-05-04 21:40 52.35780 13.50081 148 ft 8 kts 158°
2026-05-04 21:41 52.35719 13.50120 148 ft 10 kts 167°
2026-05-04 21:41 52.35648 13.50074 147 ft 13 kts 237°
2026-05-04 21:41 52.35608 13.49926 147 ft 15 kts 248°
2026-05-04 21:41 52.35567 13.49755 147 ft 17 kts 250°
2026-05-04 21:42 52.35523 13.49565 147 ft 19 kts 246°
2026-05-04 21:42 52.35472 13.49362 147 ft 20 kts 250°
2026-05-04 21:42 52.35419 13.49138 147 ft 22 kts 250°
2026-05-04 21:42 52.35365 13.48900 147 ft 23 kts 251°
2026-05-04 21:43 52.35305 13.48650 147 ft 24 kts 250°
2026-05-04 21:43 52.35244 13.48388 148 ft 25 kts 249°
2026-05-04 21:43 52.35179 13.48117 148 ft 26 kts 248°
2026-05-04 21:43 52.35113 13.47840 149 ft 27 kts 249°
2026-05-04 21:44 52.35044 13.47550 149 ft 27 kts 249°
2026-05-04 21:44 52.34975 13.47262 149 ft 28 kts 249°
2026-05-04 21:44 52.34907 13.46970 150 ft 19 kts 249°
2026-05-04 21:44 52.34865 13.46797 150 ft 15 kts 248°
2026-05-04 21:45 52.34835 13.46724 150 ft 9 kts 211°
2026-05-04 21:45 52.34769 13.46734 150 ft 10 kts 160°
2026-05-04 21:45 52.34709 13.46771 153 ft 8 kts 158°
2026-05-04 21:45 52.34662 13.46802 155 ft 4 kts 158°
2026-05-04 21:46 52.34661 13.46802 155 ft 0 kts 157°
2026-05-04 21:46 52.34660 13.46803 155 ft 1 kts 157°
2026-05-04 21:46 52.34647 13.46812 156 ft 4 kts 156°
2026-05-04 21:46 52.34612 13.46836 157 ft 7 kts 156°
2026-05-04 21:47 52.34569 13.46910 159 ft 11 kts 102°
2026-05-04 21:47 52.34588 13.47034 158 ft 0 kts 70°
2026-05-04 21:48 52.34600 13.47085 158 ft 24 kts 68°
2026-05-04 21:48 52.34768 13.47740 157 ft 98 kts 70°
2026-05-04 21:49 52.35071 13.49137 198 ft 157 kts 71°
2026-05-04 21:49 52.35419 13.50932 848 ft 172 kts 73°
2026-05-04 21:49 52.35738 13.52909 1886 ft 183 kts 80°
2026-05-04 21:49 52.35897 13.55009 2819 ft 194 kts 86°
2026-05-04 21:50 52.36013 13.57304 3276 ft 217 kts 87°
2026-05-04 21:50 52.36169 13.59888 3830 ft 241 kts 85°
2026-05-04 21:50 52.36372 13.62651 4801 ft 246 kts 85°
2026-05-04 21:50 52.36580 13.65464 5709 ft 250 kts 85°
2026-05-04 21:51 52.36792 13.68302 6594 ft 253 kts 85°
2026-05-04 21:51 52.36889 13.71185 7458 ft 254 kts 102°
2026-05-04 21:51 52.36187 13.73783 8192 ft 251 kts 139°
2026-05-04 21:51 52.34728 13.75214 8927 ft 245 kts 170°
2026-05-04 21:52 52.33628 13.75650 9457 ft 246 kts 173°
2026-05-04 21:52 52.31358 13.75946 10229 ft 256 kts 196°
2026-05-04 21:52 52.29641 13.74964 10665 ft 270 kts 206°
2026-05-04 21:52 52.27873 13.73723 11238 ft 280 kts 207°
2026-05-04 21:53 52.26691 13.72832 11735 ft 284 kts 212°
2026-05-04 21:53 52.25120 13.70752 12155 ft 302 kts 234°
2026-05-04 21:53 52.23889 13.66573 13031 ft 314 kts 251°
2026-05-04 21:53 52.23103 13.63223 13899 ft 318 kts 249°
2026-05-04 21:54 52.22562 13.60995 14472 ft 319 kts 249°
2026-05-04 21:54 52.21756 13.57621 15389 ft 319 kts 250°
2026-05-04 21:54 52.20967 13.54202 16233 ft 323 kts 250°
2026-05-04 21:54 52.20195 13.50726 17032 ft 327 kts 251°
2026-05-04 21:55 52.19056 13.42621 18743 ft 338 kts 264°
2026-05-04 21:55 52.18862 13.38764 19448 ft 342 kts 265°
2026-05-04 21:55 52.18668 13.34885 20150 ft 345 kts 265°
2026-05-04 21:56 52.18466 13.30998 20802 ft 349 kts 265°
2026-05-04 21:56 52.18254 13.27039 21426 ft 353 kts 265°
2026-05-04 21:56 52.18038 13.23026 22018 ft 357 kts 265°
2026-05-04 21:56 52.17818 13.18969 22600 ft 361 kts 265°
2026-05-04 21:57 52.17595 13.14877 23175 ft 364 kts 265°
2026-05-04 21:57 52.17368 13.10732 23724 ft 368 kts 265°
2026-05-04 21:57 52.17142 13.06586 24312 ft 368 kts 265°
2026-05-04 21:57 52.16914 13.02467 24890 ft 369 kts 265°
2026-05-04 21:58 52.16682 12.98297 25462 ft 370 kts 265°
2026-05-04 21:58 52.16326 12.94134 25977 ft 371 kts 259°
2026-05-04 21:58 52.15775 12.90018 26509 ft 372 kts 258°
2026-05-04 21:58 52.15190 12.85954 27019 ft 373 kts 258°
2026-05-04 21:59 52.14592 12.81826 27485 ft 375 kts 258°
2026-05-04 21:59 52.13995 12.77668 27954 ft 377 kts 258°
2026-05-04 21:59 52.13471 12.73486 28414 ft 379 kts 265°
2026-05-04 21:59 52.13595 12.69186 28841 ft 384 kts 281°
2026-05-04 22:00 52.14549 12.65093 29359 ft 389 kts 298°
2026-05-04 22:00 52.16206 12.61617 29769 ft 399 kts 313°
2026-05-04 22:00 52.18236 12.58499 30173 ft 401 kts 314°
2026-05-04 22:00 52.20319 12.55412 30418 ft 405 kts 315°
2026-05-04 22:01 52.22436 12.52368 30782 ft 406 kts 315°
2026-05-04 22:01 52.24542 12.49247 30920 ft 408 kts 309°
2026-05-04 22:01 52.26107 12.45457 31205 ft 399 kts 291°
2026-05-04 22:01 52.26921 12.41232 31533 ft 395 kts 283°
2026-05-04 22:02 52.27580 12.36860 31700 ft 396 kts 282°
2026-05-04 22:02 52.28217 12.32472 32085 ft 396 kts 282°
2026-05-04 22:02 52.28834 12.28087 32374 ft 396 kts 281°
2026-05-04 22:02 52.29441 12.23686 32682 ft 396 kts 281°
2026-05-04 22:03 52.30033 12.19348 32990 ft 395 kts 281°
2026-05-04 22:03 52.30627 12.14959 33277 ft 395 kts 281°
2026-05-04 22:03 52.31216 12.10583 33591 ft 394 kts 281°
2026-05-04 22:03 52.31802 12.06203 33906 ft 393 kts 281°
2026-05-04 22:04 52.32383 12.01833 34165 ft 393 kts 281°
2026-05-04 22:04 52.32953 11.97515 34375 ft 393 kts 281°
2026-05-04 22:04 52.33535 11.93088 34605 ft 394 kts 281°
2026-05-04 22:04 52.34100 11.88758 34846 ft 394 kts 280°
2026-05-04 22:05 52.34523 11.84343 35017 ft 392 kts 272°
2026-05-04 22:05 52.34657 11.79894 35286 ft 391 kts 271°
2026-05-04 22:05 52.34749 11.75443 35512 ft 391 kts 271°
2026-05-04 22:05 52.34836 11.70992 35716 ft 392 kts 271°
2026-05-04 22:06 52.34924 11.66529 35933 ft 392 kts 271°
2026-05-04 22:06 52.35013 11.62059 36155 ft 393 kts 271°
2026-05-04 22:06 52.35101 11.57641 36352 ft 393 kts 271°
2026-05-04 22:06 52.35189 11.53169 36545 ft 394 kts 271°
2026-05-04 22:07 52.35275 11.48681 36733 ft 394 kts 271°
2026-05-04 22:07 52.35359 11.44195 36911 ft 395 kts 271°
2026-05-04 22:07 52.35442 11.39692 37099 ft 395 kts 271°
2026-05-04 22:07 52.35522 11.35191 37282 ft 396 kts 271°
2026-05-04 22:08 52.35602 11.30677 37458 ft 396 kts 271°
2026-05-04 22:08 52.35680 11.26208 37609 ft 397 kts 271°
2026-05-04 22:08 52.35757 11.21684 37793 ft 397 kts 271°
2026-05-04 22:08 52.35832 11.17182 38147 ft 392 kts 271°
2026-05-04 22:09 52.35879 11.14221 38136 ft 395 kts 271°
2026-05-04 22:09 52.36025 11.05093 38047 ft 406 kts 271°
2026-05-04 22:10 52.36175 10.95719 37984 ft 416 kts 271°
2026-05-04 22:10 52.36318 10.86230 37985 ft 423 kts 271°
2026-05-04 22:11 52.36021 10.76599 38057 ft 425 kts 260°
2026-05-04 22:11 52.34913 10.67070 38000 ft 426 kts 259°
2026-05-04 22:12 52.33769 10.57580 38000 ft 426 kts 259°
2026-05-04 22:12 52.32623 10.48139 37987 ft 424 kts 259°
2026-05-04 22:13 52.31464 10.38664 37994 ft 423 kts 259°
2026-05-04 22:13 52.30304 10.29257 37989 ft 421 kts 259°
2026-05-04 22:14 52.29147 10.19932 37992 ft 421 kts 259°
2026-05-04 22:14 52.27974 10.10539 37988 ft 420 kts 259°
2026-05-04 22:15 52.26805 10.01241 37985 ft 420 kts 258°
2026-05-04 22:15 52.25620 9.91881 37976 ft 420 kts 258°
2026-05-04 22:16 52.25008 9.82440 37942 ft 421 kts 266°
2026-05-04 22:16 52.24751 9.72872 37977 ft 423 kts 267°
2026-05-04 22:17 52.24496 9.63204 37976 ft 429 kts 267°
2026-05-04 22:17 52.24225 9.53451 37963 ft 429 kts 267°
2026-05-04 22:18 52.23945 9.43770 37975 ft 429 kts 266°
2026-05-04 22:18 52.23654 9.34037 37962 ft 429 kts 266°
2026-05-04 22:19 52.23357 9.24320 37963 ft 427 kts 266°
2026-05-04 22:19 52.23067 9.14647 37969 ft 426 kts 266°
2026-05-04 22:20 52.22770 9.05022 37970 ft 425 kts 266°
2026-05-04 22:20 52.22462 8.95375 37965 ft 425 kts 266°
2026-05-04 22:21 52.22150 8.85810 37968 ft 424 kts 266°
2026-05-04 22:21 52.21830 8.76201 37965 ft 423 kts 266°
2026-05-04 22:22 52.21501 8.66605 37963 ft 423 kts 266°
2026-05-04 22:22 52.21166 8.57032 37968 ft 427 kts 266°
2026-05-04 22:23 52.20821 8.47295 37977 ft 431 kts 266°
2026-05-04 22:23 52.20466 8.37524 37971 ft 431 kts 266°
2026-05-04 22:24 52.20101 8.27812 37955 ft 431 kts 266°
2026-05-04 22:24 52.19728 8.18063 37958 ft 430 kts 265°
2026-05-04 22:25 52.19348 8.08397 37971 ft 428 kts 265°
2026-05-04 22:25 52.18959 7.98703 37978 ft 427 kts 265°
2026-05-04 22:26 52.18565 7.89027 37965 ft 427 kts 265°
2026-05-04 22:26 52.18165 7.79421 37970 ft 427 kts 265°
2026-05-04 22:27 52.17755 7.69756 37963 ft 426 kts 265°
2026-05-04 22:27 52.17340 7.60185 37971 ft 426 kts 265°
2026-05-04 22:28 52.16915 7.50530 37965 ft 426 kts 265°
2026-05-04 22:28 52.16486 7.40960 37970 ft 425 kts 265°
2026-05-04 22:29 52.16043 7.31247 37983 ft 432 kts 265°
2026-05-04 22:29 52.15593 7.21446 37968 ft 433 kts 265°
2026-05-04 22:30 52.15136 7.11716 37965 ft 433 kts 265°
2026-05-04 22:30 52.14660 7.01917 37962 ft 432 kts 264°
2026-05-04 22:31 52.14180 6.92164 37968 ft 431 kts 264°
2026-05-04 22:31 52.13700 6.82490 37970 ft 431 kts 264°
2026-05-04 22:32 52.13169 6.72774 37963 ft 430 kts 262°
2026-05-04 22:32 52.12257 6.63154 37971 ft 429 kts 260°
2026-05-04 22:33 52.11358 6.53550 37954 ft 428 kts 261°
2026-05-04 22:33 52.10488 6.44015 37979 ft 427 kts 261°
2026-05-04 22:34 52.09612 6.34451 37968 ft 427 kts 261°
2026-05-04 22:34 52.08730 6.24893 37987 ft 428 kts 261°
2026-05-04 22:35 52.07832 6.15250 37970 ft 434 kts 261°
2026-05-04 22:35 52.06927 6.05573 37958 ft 435 kts 260°
2026-05-04 22:36 52.06004 5.95842 37961 ft 435 kts 260°
2026-05-04 22:36 52.05078 5.86183 37964 ft 434 kts 260°
2026-05-04 22:37 52.04141 5.76494 37966 ft 433 kts 260°
2026-05-04 22:37 52.03201 5.66856 37971 ft 433 kts 260°
2026-05-04 22:38 52.02248 5.57178 37967 ft 433 kts 260°
2026-05-04 22:38 52.01291 5.47524 37966 ft 433 kts 260°
2026-05-04 22:39 52.00331 5.37922 37973 ft 433 kts 260°
2026-05-04 22:39 51.99359 5.28298 37974 ft 433 kts 260°
2026-05-04 22:40 51.98376 5.18638 37968 ft 433 kts 259°
2026-05-04 22:40 51.97386 5.08986 37971 ft 433 kts 259°
2026-05-04 22:41 51.96387 4.99341 37983 ft 433 kts 259°
2026-05-04 22:41 51.95385 4.89733 37981 ft 434 kts 259°
2026-05-04 22:42 51.94371 4.80070 37983 ft 434 kts 259°
2026-05-04 22:42 51.93359 4.70468 37982 ft 434 kts 259°
2026-05-04 22:43 51.92332 4.60819 37994 ft 434 kts 259°
2026-05-04 22:43 51.91299 4.51172 37998 ft 434 kts 259°
2026-05-04 22:44 51.90262 4.41575 37999 ft 435 kts 259°
2026-05-04 22:44 51.89211 4.31918 37993 ft 435 kts 259°
2026-05-04 22:45 51.88155 4.22256 37991 ft 435 kts 259°
2026-05-04 22:45 51.86563 4.07828 37999 ft 435 kts 259°
2026-05-04 22:46 51.86019 4.03000 37560 ft 431 kts 259°
2026-05-04 22:46 51.85496 3.98327 37380 ft 415 kts 258°
2026-05-04 22:46 51.84980 3.93758 36740 ft 411 kts 258°
2026-05-04 22:46 51.84476 3.89305 36268 ft 404 kts 258°
2026-05-04 22:47 51.83959 3.84850 35680 ft 400 kts 257°
2026-05-04 22:47 51.83294 3.80506 35193 ft 397 kts 254°
2026-05-04 22:47 51.82578 3.76184 34634 ft 398 kts 254°
2026-05-04 22:47 51.81883 3.71855 34121 ft 399 kts 255°
2026-05-04 22:48 51.81205 3.67500 33561 ft 398 kts 255°
2026-05-04 22:48 51.80546 3.63205 33059 ft 399 kts 255°
2026-05-04 22:48 51.79879 3.58837 32557 ft 401 kts 255°
2026-05-04 22:48 51.79206 3.54450 31986 ft 403 kts 255°
2026-05-04 22:49 51.78530 3.50030 31481 ft 404 kts 255°
2026-05-04 22:49 51.77853 3.45623 30916 ft 403 kts 255°
2026-05-04 22:49 51.77187 3.41299 30406 ft 400 kts 255°
2026-05-04 22:49 51.76515 3.36961 29836 ft 397 kts 254°
2026-05-04 22:50 51.75846 3.32667 29366 ft 390 kts 254°
2026-05-04 22:50 51.75181 3.28425 28835 ft 388 kts 254°
2026-05-04 22:50 51.74519 3.24213 28331 ft 385 kts 254°
2026-05-04 22:50 51.73860 3.20027 27816 ft 383 kts 255°
2026-05-04 22:51 51.73209 3.15869 27316 ft 380 kts 256°
2026-05-04 22:51 51.72765 3.11722 26807 ft 379 kts 261°
2026-05-04 22:51 51.72468 3.07497 26304 ft 377 kts 262°
2026-05-04 22:51 51.72161 3.03304 25797 ft 375 kts 262°
2026-05-04 22:52 51.71828 2.99135 25312 ft 372 kts 261°
2026-05-04 22:52 51.71479 2.95009 24817 ft 370 kts 261°
2026-05-04 22:52 51.71124 2.90913 24328 ft 368 kts 261°
2026-05-04 22:52 51.70770 2.86877 23845 ft 366 kts 261°
2026-05-04 22:53 51.70411 2.82819 23331 ft 364 kts 261°
2026-05-04 22:53 51.70054 2.78798 22884 ft 360 kts 261°
2026-05-04 22:53 51.69696 2.74793 22392 ft 359 kts 261°
2026-05-04 22:53 51.69340 2.70825 21924 ft 357 kts 261°
2026-05-04 22:54 51.68989 2.66916 21461 ft 355 kts 261°
2026-05-04 22:54 51.68636 2.62994 20991 ft 353 kts 261°
2026-05-04 22:54 51.68290 2.59084 20524 ft 351 kts 261°
2026-05-04 22:54 51.67943 2.55199 20049 ft 349 kts 261°
2026-05-04 22:55 51.67595 2.51333 19601 ft 347 kts 261°
2026-05-04 22:55 51.67249 2.47494 19094 ft 347 kts 261°
2026-05-04 22:55 51.66900 2.43667 18658 ft 343 kts 262°
2026-05-04 22:55 51.66668 2.41144 18355 ft 342 kts 261°
2026-05-04 22:56 51.66205 2.36121 17763 ft 338 kts 261°
2026-05-04 22:56 51.65974 2.33637 17458 ft 338 kts 261°
2026-05-04 22:56 51.65627 2.29890 17020 ft 336 kts 262°
2026-05-04 22:56 51.65281 2.26167 16572 ft 334 kts 262°
2026-05-04 22:57 51.64938 2.22484 16135 ft 332 kts 262°
2026-05-04 22:57 51.64595 2.18816 15701 ft 330 kts 261°
2026-05-04 22:57 51.64254 2.15180 15283 ft 327 kts 261°
2026-05-04 22:57 51.63966 2.11555 14993 ft 325 kts 269°
2026-05-04 22:58 51.64388 2.08007 14618 ft 330 kts 288°
2026-05-04 22:58 51.65176 2.04567 14346 ft 321 kts 290°
2026-05-04 22:58 51.65704 2.01162 14060 ft 305 kts 271°
2026-05-04 22:58 51.65472 1.97859 13808 ft 292 kts 258°
2026-05-04 22:59 51.65036 1.94712 13632 ft 285 kts 257°
2026-05-04 22:59 51.64592 1.91638 13458 ft 286 kts 256°
2026-05-04 22:59 51.64104 1.88484 12930 ft 295 kts 256°
2026-05-04 22:59 51.63590 1.85325 12710 ft 286 kts 255°
2026-05-04 23:00 51.63071 1.82248 12469 ft 284 kts 255°
2026-05-04 23:00 51.62552 1.79178 12255 ft 284 kts 255°
2026-05-04 23:00 51.62031 1.76103 12045 ft 285 kts 255°
2026-05-04 23:00 51.61510 1.73022 11826 ft 285 kts 255°
2026-05-04 23:01 51.60990 1.69951 11609 ft 284 kts 255°
2026-05-04 23:01 51.60470 1.66884 11393 ft 283 kts 255°
2026-05-04 23:01 51.59957 1.63863 11174 ft 283 kts 255°
2026-05-04 23:01 51.59439 1.60821 10957 ft 282 kts 255°
2026-05-04 23:02 51.58919 1.57772 10739 ft 281 kts 255°
2026-05-04 23:02 51.58402 1.54744 10521 ft 280 kts 255°
2026-05-04 23:02 51.57887 1.51726 10317 ft 280 kts 255°
2026-05-04 23:02 51.57371 1.48703 10087 ft 278 kts 255°
2026-05-04 23:03 51.56870 1.45794 9853 ft 268 kts 255°
2026-05-04 23:03 51.56379 1.42958 9661 ft 258 kts 255°
2026-05-04 23:03 51.55901 1.40233 9457 ft 248 kts 255°
2026-05-04 23:03 51.55438 1.37611 9277 ft 240 kts 255°
2026-05-04 23:04 51.54988 1.35067 9089 ft 232 kts 255°
2026-05-04 23:04 51.54560 1.32635 8933 ft 227 kts 255°
2026-05-04 23:04 51.54131 1.30192 8749 ft 227 kts 255°
2026-05-04 23:04 51.53703 1.27735 8586 ft 229 kts 255°
2026-05-04 23:05 51.53275 1.25260 8381 ft 230 kts 255°
2026-05-04 23:05 51.52852 1.22811 8184 ft 230 kts 255°
2026-05-04 23:05 51.52423 1.20341 8013 ft 229 kts 255°
2026-05-04 23:05 51.51996 1.17884 7838 ft 228 kts 255°
2026-05-04 23:06 51.51569 1.15432 7657 ft 228 kts 255°
2026-05-04 23:06 51.51142 1.12983 7486 ft 227 kts 255°
2026-05-04 23:06 51.50716 1.10538 7305 ft 226 kts 255°
2026-05-04 23:06 51.50296 1.08135 7139 ft 226 kts 255°
2026-05-04 23:07 51.49871 1.05702 6961 ft 225 kts 255°
2026-05-04 23:07 51.49446 1.03277 6786 ft 225 kts 255°
2026-05-04 23:07 51.49022 1.00860 6607 ft 224 kts 255°
2026-05-04 23:07 51.48600 0.98459 6472 ft 223 kts 255°
2026-05-04 23:08 51.48177 0.96052 6258 ft 225 kts 255°
2026-05-04 23:08 51.47755 0.93649 6166 ft 221 kts 255°
2026-05-04 23:08 51.47506 0.91257 6181 ft 220 kts 270°
2026-05-04 23:08 51.47569 0.88742 6001 ft 225 kts 275°
2026-05-04 23:09 51.47692 0.86267 6025 ft 224 kts 275°
2026-05-04 23:09 51.47809 0.83774 6032 ft 224 kts 274°
2026-05-04 23:09 51.47917 0.81271 6036 ft 225 kts 274°
2026-05-04 23:09 51.48022 0.78761 6021 ft 225 kts 274°
2026-05-04 23:10 51.48117 0.76257 6024 ft 225 kts 274°
2026-05-04 23:10 51.48208 0.73746 6020 ft 225 kts 274°
2026-05-04 23:10 51.48298 0.71274 6027 ft 225 kts 274°
2026-05-04 23:10 51.48394 0.68750 6019 ft 226 kts 274°
2026-05-04 23:11 51.48486 0.66239 6026 ft 225 kts 274°
2026-05-04 23:11 51.48578 0.63726 6026 ft 225 kts 274°
2026-05-04 23:11 51.48669 0.61212 6021 ft 225 kts 274°
2026-05-04 23:11 51.48762 0.58667 5683 ft 236 kts 274°
2026-05-04 23:12 51.48864 0.56010 4792 ft 246 kts 274°
2026-05-04 23:12 51.48974 0.53321 4415 ft 232 kts 274°
2026-05-04 23:12 51.49062 0.50820 4220 ft 218 kts 274°
2026-05-04 23:12 51.49135 0.48428 4132 ft 208 kts 274°
2026-05-04 23:13 51.48917 0.46207 4122 ft 202 kts 246°
2026-05-04 23:13 51.48237 0.44219 4176 ft 205 kts 240°
2026-05-04 23:13 51.47498 0.42259 4104 ft 210 kts 240°
2026-05-04 23:13 51.46748 0.40253 4013 ft 205 kts 240°
2026-05-04 23:14 51.46009 0.38257 3646 ft 216 kts 241°
2026-05-04 23:14 51.45233 0.36139 3174 ft 216 kts 242°
2026-05-04 23:14 51.44495 0.34135 2980 ft 203 kts 241°
2026-05-04 23:14 51.43801 0.32267 2912 ft 188 kts 241°
2026-05-04 23:15 51.43196 0.30451 2903 ft 186 kts 256°
2026-05-04 23:15 51.43107 0.28404 3114 ft 188 kts 274°
2026-05-04 23:15 51.43183 0.26266 3111 ft 192 kts 275°
2026-05-04 23:15 51.43270 0.24120 3070 ft 193 kts 275°
2026-05-04 23:16 51.43342 0.21972 2983 ft 190 kts 275°
2026-05-04 23:16 51.43402 0.19886 2984 ft 190 kts 274°
2026-05-04 23:16 51.43460 0.17768 2986 ft 190 kts 274°
2026-05-04 23:16 51.43528 0.15651 2996 ft 190 kts 275°
2026-05-04 23:17 51.43601 0.13503 2684 ft 200 kts 275°
2026-05-04 23:17 51.43677 0.11263 2338 ft 197 kts 275°
2026-05-04 23:17 51.43742 0.09129 2222 ft 186 kts 274°
2026-05-04 23:17 51.43806 0.07099 2161 ft 178 kts 275°
2026-05-04 23:18 51.43868 0.05158 2036 ft 177 kts 275°
2026-05-04 23:18 51.43931 0.03221 2009 ft 170 kts 275°
2026-05-04 23:18 51.43996 0.01301 2029 ft 174 kts 275°
2026-05-04 23:18 51.44054 -0.00630 2121 ft 169 kts 275°
2026-05-04 23:19 51.44107 -0.02470 1983 ft 164 kts 275°
2026-05-04 23:19 51.44160 -0.04232 1901 ft 150 kts 274°
2026-05-04 23:19 51.44196 -0.05863 1866 ft 146 kts 274°
2026-05-04 23:19 51.44235 -0.07483 1943 ft 145 kts 274°
2026-05-04 23:20 51.44321 -0.09103 2071 ft 151 kts 287°
2026-05-04 23:20 51.44914 -0.10455 2101 ft 152 kts 328°
2026-05-04 23:20 51.45909 -0.11029 2140 ft 154 kts 347°
2026-05-04 23:20 51.46970 -0.11398 2041 ft 158 kts 349°
2026-05-04 23:21 51.48017 -0.11751 1963 ft 151 kts 348°
2026-05-04 23:21 51.49055 -0.11730 1973 ft 152 kts 20°
2026-05-04 23:21 51.49876 -0.10637 1814 ft 165 kts 63°
2026-05-04 23:21 51.50251 -0.08956 1758 ft 154 kts 74°
2026-05-04 23:22 51.50651 -0.07404 1788 ft 145 kts 64°
2026-05-04 23:22 51.50911 -0.05919 1704 ft 140 kts 91°
2026-05-04 23:22 51.50802 -0.04391 1665 ft 136 kts 99°
2026-05-04 23:22 51.50764 -0.02880 1658 ft 136 kts 91°
2026-05-04 23:23 51.50747 -0.01312 1416 ft 143 kts 95°
2026-05-04 23:23 51.50680 0.00257 1026 ft 138 kts 95°
2026-05-04 23:23 51.50637 0.01740 659 ft 129 kts 94°
2026-05-04 23:23 51.50591 0.03129 353 ft 121 kts 95°
2026-05-04 23:24 51.50555 0.04451 71 ft 113 kts 95°
2026-05-04 23:24 51.50518 0.05499 26 ft 69 kts 92°
2026-05-04 23:24 51.50505 0.06035 24 ft 28 kts 93°
2026-05-04 23:24 51.50491 0.06278 24 ft 17 kts 106°
2026-05-04 23:25 51.50420 0.06311 25 ft 10 kts 240°
2026-05-04 23:25 51.50418 0.06189 26 ft 12 kts 272°
2026-05-04 23:25 51.50423 0.06040 24 ft 15 kts 272°
2026-05-04 23:25 51.50428 0.05867 24 ft 17 kts 272°
2026-05-04 23:26 51.50434 0.05667 24 ft 19 kts 273°
2026-05-04 23:26 51.50441 0.05454 24 ft 12 kts 273°
2026-05-04 23:26 51.50445 0.05315 24 ft 14 kts 273°
2026-05-04 23:26 51.50450 0.05150 24 ft 16 kts 273°
2026-05-04 23:27 51.50464 0.04961 24 ft 18 kts 274°
2026-05-04 23:27 51.50468 0.04833 24 ft 8 kts 273°
2026-05-04 23:27 51.50471 0.04730 24 ft 11 kts 271°
2026-05-04 23:27 51.50473 0.04624 24 ft 4 kts 274°
2026-05-04 23:28 51.50457 0.04596 26 ft 4 kts 187°
2026-05-04 23:28 51.50445 0.04576 24 ft 2 kts 266°
2026-05-04 23:28 51.50448 0.04570 27 ft 0 kts 295°